sat.trackr.live / text

‹ back to catalog

STARLINK-31284

NORAD 59246 · 2024-049R

PAYLOAD ACTIVE UNKNOWN

§ Identity

Operator
Country
US
Launch date
2024-03-16
Launch site
AFETR
Launch vehicle
Mass (kg)
RCS (m²)

Purposes: comms

External: N2YO · Heavens-Above · Gunter

§ Orbital elements

Epoch: 2026-05-25T03:58:30.491616Z

Period
94.27 min
Inclination
43.0020°
Eccentricity
0.0000867
Mean motion
15.27582426 rev/d
Perigee alt
482.4 km
Apogee alt
483.6 km
Semi-major
6,861.2 km
B*
4.6553e-5
RAAN
71.5070°
Arg perigee
232.9843°
Mean anomaly
127.0930°
Rev number
12,409

§ Raw data

STARLINK-312841 59246U 24049R   26145.16563069  .00001019  00000+0  46553-4 0  99962 59246  43.0020  71.5070 0000867 232.9843 127.0930 15.27582426124099

JSON: /api/v1/satellites/59246 · /tle

For live sub-satellite position, see the globe view (requires WebGL).

§ Visibility from observer

Set your observer location to see the next 7 days of passes ≥ 10°. The values pass through the URL so the page stays shareable.

No JS? Fill the form by hand. The geolocation button needs JavaScript.